This is the latest recevied weather packets stored in our database for station/object W4KAB. If no packets are shown the sender has not sent any weather packets the latest 10 day(s).
| Time | Temp. | Humidity | Pressure | Rain* | Wind** | Luminosity | Snow |
|---|---|---|---|---|---|---|---|
| 1777417929 | 17.22° C | 91% | 1017.8 hPa | 0 mm | - | 17 W/m² | - |
| 1777417626 | 17.22° C | 88% | 1018 hPa | 0 mm | - | 13 W/m² | - |
| 1777417321 | 17.22° C | 88% | 1017.7 hPa | 0 mm | - | 14 W/m² | - |
| 1777417018 | 17.22° C | 88% | 1017.8 hPa | 0 mm | - | 29 W/m² | - |
| 1777416713 | 17.22° C | 91% | 1017.6 hPa | 0 mm | - | 47 W/m² | - |
| 1777416409 | 17.22° C | 89% | 1017.7 hPa | 0 mm | - | 37 W/m² | - |
| 1777416104 | 16.67° C | 90% | 1017.5 hPa | 0 mm | - | 32 W/m² | - |
| 1777415798 | 17.22° C | 91% | 1017.4 hPa | 0 mm | - | 27 W/m² | - |
| 1777415495 | 17.78° C | 89% | 1017.5 hPa | 0 mm | - | 70 W/m² | - |
| 1777415191 | 17.22° C | 89% | 1017.6 hPa | 0 mm | - | 84 W/m² | - |
| 1777414886 | 17.22° C | 91% | 1017.5 hPa | 0 mm | - | 61 W/m² | - |
| 1777414585 | 17.22° C | 88% | 1017.8 hPa | 0 mm | - | 55 W/m² | - |
| 1777414280 | 17.22° C | 88% | 1018 hPa | 0 mm | - | 61 W/m² | - |
| 1777413976 | 17.22° C | 88% | 1018.6 hPa | 0 mm | - | 56 W/m² | - |
| 1777413671 | 16.67° C | 87% | 1018.4 hPa | 0 mm | - | 52 W/m² | - |
| 1777413367 | 16.67° C | 88% | 1018.6 hPa | 0 mm | - | 39 W/m² | - |
| 1777413063 | 17.22° C | 87% | 1018.4 hPa | 0 mm | - | 33 W/m² | - |
| 1777412758 | 16.67° C | 87% | 1018.9 hPa | 0 mm | - | 52 W/m² | - |
| 1777412456 | 16.67° C | 88% | 1018.8 hPa | 0 mm | - | 89 W/m² | - |
| 1777412155 | 17.22° C | 89% | 1018.7 hPa | 0 mm | - | 50 W/m² | - |
| 1777411850 | 16.67° C | 86% | 1018.9 hPa | 0 mm | - | 66 W/m² | - |
| 1777411549 | 16.67° C | 87% | 1019.1 hPa | 0 mm | - | 78 W/m² | - |
| 1777411244 | 16.67° C | 87% | 1019 hPa | 0 mm | - | 52 W/m² | - |
| 1777410939 | 16.67° C | 87% | 1018.8 hPa | 0 mm | - | 62 W/m² | - |
| 1777410639 | 16.67° C | 87% | 1018.9 hPa | 0 mm | - | 71 W/m² | - |
* Rain latest hour (hover to see other rain measurements)
** Current wind speed in m/s (hover to see current wind gust speed)